星链-36509(STARLINK-36509)

导读

STARLINK-36509是由美国于2026年1月12日发射的星链系列卫星,星链是SpaceX打造的低轨卫星互联网星座项目,旨在为全球各地提供高速互联网接入服务,尤其覆盖偏远地区和网络基础设施薄弱区域。该卫星的入轨进一步扩充了星链星座的卫星规模,助力星座持续完善全球覆盖与服务能力。

Basic Information
目录编号:
67408
目录名称:
STARLINK-36509
国际标识:
2026-005E
轨道中心:
EARTH
卫星名称:
星链-36509
卫星全名:
星链-36509(STARLINK-36509)
卫星状态:
在轨 (已飞行235 天)
发射日期:
2026-01-12 UTC
国别 :
美国 (US)
星等 :
--
Orbit Information
数据来源 国际轨道数据
星历时间: 2026-09-03T21:49:17+0800
1天前
查看轨道信息
半长轴: 6861.197km
偏心率: 0.0001388
轨道倾角: 43.003°
近地点辐角 269.261°
升交点赤经 313.226°
平近点角 90.808°
近地点: 482.107km
远地点: 484.013km
周期: 94.267分钟
每日圈数: 15.275766
Detailed Information
固有亮度:
5
最大亮度:
2.5
卫星平台:
Starlink V1.0
覆盖范围:
全球
运营商:
太空探索技术公司
运营商所在国:
美国
制造商(研发单位):
太空探索技术公司
制造商所在国:
美国
使用方式:
暂无
Satellite Introduction
Starlink 计划是 SpaceX 推出的全球卫星互联网项目,通过发射低轨道卫星,为全球尤其是偏远地区提供高速、低延迟的互联网服务。自 2019 年起,Starlink 已部署数千颗卫星,旨在缩小全球数字鸿沟,推动互联网普及。该项目还为军事、航空等行业提供通信支持,带来广泛经济效益。
2D Orbit Map
3D Orbit Map
Orbit Altitude Analysis Chart
Orbit Inclination Analysis Chart
Orbit Comprehensive Analysis Chart
View Comprehensive Chart
Conjunction Data List
Event ID Objects TCA Miss Dist (km) Collision Risk Probability Collision Risk Index (CRI) Action
CDM_260905-173006-581006-740821
2026-09-05T
17:30:33+0000
1.387 km
极远距离
8.502028E-6 低风险 0.54
CDM_260903-005705-695706-740822
2026-09-03T
00:57:56+0000
1.675 km
极远距离
4.364169E-6 低风险 0.48
CDM_260905-070705-870106-740821
2026-09-05T
07:07:48+0000
1.768 km
极远距离
3.752519E-6 低风险 0.46
CDM_260906-142206-471106-740821
2026-09-06T
14:22:20+0000
2.121 km
极远距离
1.759309E-6 低风险 0.4